Torna al catalogo

STARLINK-37224

AttivoComunicazioniSSO
NORAD 68671·PAYLOAD·🇺🇸 United States

Lanciato Apr 11, 2026 da Vandenberg Space Force Base

Loading…

Prossimi Passaggi (prossime 24 ore)

TLE

AggiornatoSource: CelesTrak SupGP

Epoca: Sep 14, 2026, 21:13 UTC

1 68671C 26077K   26257.88451389 -.00005266  00000+0 -16357-3 0  2570
2 68671  97.2846 127.8382 0001936  93.3556 176.0637 15.33422413    16

Traccia STARLINK-37224 in tempo reale con AllMySat

Download on the App Store